TimeEDT,TemperatureF,Dew PointF,Humidity,Sea Level PressureIn,VisibilityMPH,Wind Direction,Wind SpeedMPH,Gust SpeedMPH,PrecipitationIn,Events,Conditions,WindDirDegrees,DateUTC
12:35 AM,58.8,58.8,100,30.18,7.0,Calm,Calm,-,N/A,,Clear,0,2013-10-04 04:35:00
12:55 AM,57.7,57.7,100,30.18,7.0,Calm,Calm,-,N/A,,Clear,0,2013-10-04 04:55:00
1:15 AM,57.4,57.4,100,30.18,0.5,Calm,Calm,-,N/A,Fog,Fog,0,2013-10-04 05:15:00
1:35 AM,56.5,56.5,100,30.18,0.2,Calm,Calm,-,N/A,Fog,Fog,0,2013-10-04 05:35:00
1:55 AM,56.7,56.7,100,30.18,1.0,Calm,Calm,-,N/A,,Mist,0,2013-10-04 05:55:00
2:15 AM,56.3,56.3,100,30.18,0.2,Calm,Calm,-,N/A,Fog,Fog,0,2013-10-04 06:15:00
2:35 AM,55.9,55.9,100,30.18,1.0,Calm,Calm,-,N/A,,Mostly Cloudy,0,2013-10-04 06:35:00
2:55 AM,56.1,56.1,100,30.17,1.0,Calm,Calm,-,N/A,,Overcast,0,2013-10-04 06:55:00
3:15 AM,57.2,57.2,100,30.17,7.0,Calm,Calm,-,N/A,,Overcast,0,2013-10-04 07:15:00
3:35 AM,58.3,58.3,100,30.18,7.0,Calm,Calm,-,N/A,,Overcast,0,2013-10-04 07:35:00
3:55 AM,58.5,58.5,100,30.18,5.0,Calm,Calm,-,N/A,,Mostly Cloudy,0,2013-10-04 07:55:00
4:15 AM,59.0,59.0,100,30.18,0.5,Calm,Calm,-,N/A,Fog,Fog,0,2013-10-04 08:15:00
4:35 AM,57.0,57.0,100,30.18,4.0,Calm,Calm,-,N/A,,Clear,0,2013-10-04 08:35:00
4:55 AM,57.2,57.2,100,30.18,2.5,Calm,Calm,-,N/A,,Clear,0,2013-10-04 08:55:00
5:15 AM,57.2,57.2,100,30.18,0.5,Calm,Calm,-,N/A,Fog,Fog,0,2013-10-04 09:15:00
5:35 AM,57.6,57.6,100,30.19,0.2,Calm,Calm,-,N/A,Fog,Fog,0,2013-10-04 09:35:00
5:55 AM,55.8,55.8,100,30.19,0.2,Calm,Calm,-,N/A,Fog,Fog,0,2013-10-04 09:55:00
6:15 AM,56.5,56.5,100,30.19,0.2,Calm,Calm,-,N/A,Fog,Fog,0,2013-10-04 10:15:00
6:35 AM,55.4,55.4,100,30.19,0.5,Calm,Calm,-,N/A,Fog,Fog,0,2013-10-04 10:35:00
6:55 AM,55.2,55.2,100,30.19,0.2,Calm,Calm,-,N/A,Fog,Fog,0,2013-10-04 10:55:00
7:15 AM,54.3,54.3,100,30.19,1.2,Calm,Calm,-,N/A,,Mostly Cloudy,0,2013-10-04 11:15:00
7:35 AM,53.8,53.8,100,30.20,0.2,Calm,Calm,-,N/A,Fog,Fog,0,2013-10-04 11:35:00
7:55 AM,54.7,54.7,100,30.21,7.0,Calm,Calm,-,N/A,,Clear,0,2013-10-04 11:55:00
8:35 AM,59.7,59.7,100,30.22,7.0,Calm,Calm,-,N/A,,Clear,0,2013-10-04 12:35:00
8:55 AM,60.8,60.8,100,30.22,10.0,Calm,Calm,-,N/A,,Clear,0,2013-10-04 12:55:00
9:15 AM,62.1,62.1,100,30.23,10.0,Calm,Calm,-,N/A,,Clear,0,2013-10-04 13:15:00
9:35 AM,64.2,62.1,93,30.23,10.0,Calm,Calm,-,N/A,,Clear,0,2013-10-04 13:35:00
9:55 AM,65.8,61.7,86,30.23,10.0,Calm,Calm,-,N/A,,Clear,0,2013-10-04 13:55:00
10:15 AM,67.5,61.5,81,30.23,10.0,Calm,Calm,-,N/A,,Clear,0,2013-10-04 14:15:00
10:35 AM,69.3,62.2,78,30.23,10.0,Calm,Calm,-,N/A,,Clear,0,2013-10-04 14:35:00
10:55 AM,72.0,62.4,72,30.23,10.0,Calm,Calm,-,N/A,,Clear,0,2013-10-04 14:55:00
11:15 AM,74.3,62.8,67,30.23,10.0,Calm,Calm,-,N/A,,Clear,0,2013-10-04 15:15:00
11:35 AM,76.1,61.2,60,30.23,10.0,Calm,Calm,-,N/A,,Clear,0,2013-10-04 15:35:00
11:55 AM,77.4,60.6,56,30.22,10.0,Calm,Calm,-,N/A,,Clear,0,2013-10-04 15:55:00
12:15 PM,78.8,61.0,54,30.22,10.0,South,3.5,-,N/A,,Clear,190,2013-10-04 16:15:00
12:35 PM,79.7,60.1,51,30.22,10.0,Calm,Calm,-,N/A,,Clear,0,2013-10-04 16:35:00
12:55 PM,80.8,60.1,49,30.21,10.0,SW,3.5,-,N/A,,Clear,230,2013-10-04 16:55:00
1:15 PM,81.9,59.4,46,30.20,10.0,Calm,Calm,-,N/A,,Clear,0,2013-10-04 17:15:00
1:35 PM,82.2,59.0,45,30.20,10.0,Calm,Calm,-,N/A,,Clear,0,2013-10-04 17:35:00
1:55 PM,82.8,59.2,45,30.19,10.0,South,3.5,-,N/A,,Clear,170,2013-10-04 17:55:00
2:15 PM,82.8,57.2,42,30.17,10.0,Calm,Calm,-,N/A,,Mostly Cloudy,0,2013-10-04 18:15:00
2:35 PM,83.8,57.0,40,30.17,10.0,West,3.5,-,N/A,,Scattered Clouds,260,2013-10-04 18:35:00
2:55 PM,83.8,55.6,38,30.17,10.0,SW,4.6,-,N/A,,Scattered Clouds,230,2013-10-04 18:55:00
3:15 PM,84.0,55.2,37,30.16,10.0,SSE,3.5,-,N/A,,Scattered Clouds,160,2013-10-04 19:15:00
3:35 PM,84.4,55.6,37,30.16,10.0,SE,3.5,-,N/A,,Clear,130,2013-10-04 19:35:00
3:55 PM,85.3,55.8,36,30.16,10.0,South,3.5,-,N/A,,Scattered Clouds,170,2013-10-04 19:55:00
4:15 PM,84.2,56.5,39,30.16,10.0,SSW,3.5,-,N/A,,Scattered Clouds,200,2013-10-04 20:15:00
4:35 PM,83.3,57.2,41,30.15,10.0,SSE,3.5,-,N/A,,Scattered Clouds,150,2013-10-04 20:35:00
4:55 PM,85.1,56.5,38,30.15,10.0,South,3.5,-,N/A,,Clear,170,2013-10-04 20:55:00
5:15 PM,84.2,57.2,40,30.15,10.0,SSE,3.5,-,N/A,,Scattered Clouds,150,2013-10-04 21:15:00
5:35 PM,82.9,59.0,44,30.16,10.0,SSE,3.5,-,N/A,,Scattered Clouds,150,2013-10-04 21:35:00
5:55 PM,82.0,60.1,47,30.16,10.0,Calm,Calm,-,N/A,,Clear,0,2013-10-04 21:55:00
6:15 PM,81.0,61.3,51,30.16,10.0,Calm,Calm,-,N/A,,Scattered Clouds,0,2013-10-04 22:15:00
6:35 PM,79.3,62.4,56,30.16,10.0,Calm,Calm,-,N/A,,Scattered Clouds,0,2013-10-04 22:35:00
6:55 PM,74.3,67.5,79,30.16,10.0,Calm,Calm,-,N/A,,Clear,0,2013-10-04 22:55:00
7:15 PM,70.5,67.3,89,30.17,10.0,Calm,Calm,-,N/A,,Clear,0,2013-10-04 23:15:00
7:35 PM,68.9,66.2,91,30.17,10.0,Calm,Calm,-,N/A,,Clear,0,2013-10-04 23:35:00
7:55 PM,67.5,65.1,92,30.17,10.0,Calm,Calm,-,N/A,,Clear,0,2013-10-04 23:55:00
8:15 PM,66.4,64.6,94,30.18,10.0,Calm,Calm,-,N/A,,Clear,0,2013-10-05 00:15:00
8:35 PM,65.5,63.7,94,30.18,10.0,Calm,Calm,-,N/A,,Clear,0,2013-10-05 00:35:00
8:55 PM,64.6,63.3,96,30.19,10.0,Calm,Calm,-,N/A,,Clear,0,2013-10-05 00:55:00
9:15 PM,64.8,63.7,96,30.19,10.0,Calm,Calm,-,N/A,,Clear,0,2013-10-05 01:15:00
9:35 PM,63.7,63.0,97,30.20,10.0,Calm,Calm,-,N/A,,Clear,0,2013-10-05 01:35:00
9:55 PM,63.5,62.6,97,30.20,10.0,Calm,Calm,-,N/A,,Clear,0,2013-10-05 01:55:00
10:15 PM,62.8,62.4,99,30.20,10.0,Calm,Calm,-,N/A,,Clear,0,2013-10-05 02:15:00
10:35 PM,62.6,62.2,99,30.20,7.0,Calm,Calm,-,N/A,,Clear,0,2013-10-05 02:35:00
10:55 PM,64.4,64.0,99,30.20,7.0,Calm,Calm,-,N/A,,Clear,0,2013-10-05 02:55:00
11:15 PM,61.0,60.6,99,30.20,5.0,Calm,Calm,-,N/A,,Clear,0,2013-10-05 03:15:00
11:35 PM,61.2,61.0,99,30.20,7.0,Calm,Calm,-,N/A,,Clear,0,2013-10-05 03:35:00
11:55 PM,60.1,60.1,100,30.20,5.0,Calm,Calm,-,N/A,,Clear,0,2013-10-05 03:55:00